Regional Weather Roundup
Issued by NWS

Home | Current Version | Previous Version | Text Only | Print | Product List | Glossary Off
Versions: 1 2 3 4 5 6 7 8 9 10 11 12 13 14 15 16 17 18 19 20 21 22 23 24 25 26 27 28 29 30 31 32 33 34 35 36 37 38 39 40 41 42 43 44 45 46 47 48 49 50

000
ASUS43 KFSD 020710
RWRSD

WEATHER ROUNDUP FOR SOUTH DAKOTA
NATIONAL WEATHER SERVICE SIOUX FALLS SD
200 AM CDT TUE JUN 02 2015

NOTE: "FAIR" INDICATES FEW OR NO CLOUDS BELOW 12,000 FEET WITH NO
SIGNIFICANT WEATHER AND/OR OBSTRUCTIONS TO VISIBILITY.


SDZ001>005-009-010-012>017-020800-
NORTHWEST AND NORTH CENTRAL SOUTH DAKOTA

CITY           SKY/WX    TMP DP  RH WIND       PRES   REMARKS
BUFFALO          N/A     67  56  67 N14       29.75R
FAITH            N/A     68  50  52 SW9       29.76R
MOBRIDGE       CLOUDY    69  62  78 SE15      29.76F
$$

SDZ012>016-024>037-041>051-057-063-072>074-020800-
SOUTHWEST AND SOUTH CENTRAL SOUTH DAKOTA

CITY           SKY/WX    TMP DP  RH WIND       PRES   REMARKS
RAPID CTY ARPT CLOUDY    65  58  78 SW8       29.81F
PIERRE         CLOUDY    67  60  78 SE18      29.78F
CUSTER         PTCLDY    60  44  55 VRB3      29.97S
ELLSWORTH AFB  CLOUDY    65  58  77 S10       29.80F
PHILIP         CLOUDY    70  63  78 SW5G17    29.78F
PINE RIDGE     CLOUDY    69  49  48 S18G24    29.84F
SPEARFISH      FAIR      68  48  49 NE9       29.83R
WINNER         FAIR      68  58  70 S21G28    29.83F
$$

SDZ004>011-016>023-039-040-020800-
NORTHEAST SOUTH DAKOTA

CITY           SKY/WX    TMP DP  RH WIND       PRES   REMARKS
ABERDEEN       CLOUDY    66  53  63 S20       29.86F
WATERTOWN      CLOUDY    63  50  62 S17G24    29.94F
BROOKINGS      MOCLDY    63  48  59 S13G20    29.98F
SISSETON         N/A     60  50  69 S14       29.92S
$$

SDZ017-020-022-023-036>040-048>070-020800-
SOUTHEAST SOUTH DAKOTA

CITY           SKY/WX    TMP DP  RH WIND       PRES   REMARKS
SIOUX FALLS    CLOUDY    63  50  62 S13G23    29.99F
HURON          CLOUDY    65  52  62 S15G23    29.89F
CHAMBERLAIN    CLOUDY    66  59  76 S15       29.86F
MITCHELL       CLOUDY    65  53  65 SE16      29.93F
YANKTON        CLOUDY    63  52  67 SE10      29.98S
$$

ABBREVIATIONS USED IN REMARKS
   TC - TEMPERATURE IN CELSIUS
  WCI - WIND CHILL INDEX
   HX - HEAT INDEX
  VSB - VISIBILITY




USA.gov is the U.S. government's official web portal to all federal, state and local government web resources and services.